Regional Weather Roundup
Issued by NWS

Home | Current Version | Previous Version | Graphics & Text | Print | Product List | Glossary On
Versions: 1 2 3 4 5 6 7 8 9 10 11 12 13 14 15 16 17 18 19 20 21 22 23 24 25 26 27 28 29 30 31 32 33 34 35 36 37 38 39 40 41 42 43 44 45 46 47 48 49 50
000
ASUS43 KLOT 222000
RWRIL

ILLINOIS REGIONAL WEATHER ROUNDUP
NATIONAL WEATHER SERVICE CHICAGO/ROMEOVILLE IL
300 PM CDT MON SEP 22 2014

NOTE: "FAIR" INDICATES FEW OR NO CLOUDS BELOW 12,000 FEET WITH NO
SIGNIFICANT WEATHER AND/OR OBSTRUCTIONS TO VISIBILITY.

* THESE STATIONS ARE NOT UNDER NWS QUALITY CONTROL. THEY ALSO MAY NOT
  REPORT WEATHER SUCH AS PRECIPITATION OR FOG.

ILZ001-002-007-009-015-016-024-222100-
NORTHWEST ILLINOIS

CITY           SKY/WX    TMP DP  RH WIND       PRES   REMARKS
MOLINE         SUNNY     68  43  40 SW3       30.26F
STERLING*      SUNNY     70  46  43 NW8       30.26F
$$

ILZ003-004-008-010-011-017-018-222100-
NORTH CENTRAL ILLINOIS

CITY           SKY/WX    TMP DP  RH WIND       PRES   REMARKS
ROCKFORD       SUNNY     68  43  40 NW5       30.26F
FREEPORT*        N/A     66  45  45 W7        30.28F
$$

ILZ005-006-012>014-019>023-222100-
NORTHEAST ILLINOIS

CITY           SKY/WX    TMP DP  RH WIND       PRES   REMARKS
CHICAGO-OHARE  SUNNY     62  40  44 VRB3      30.24F
CHICAGO-MIDWAY SUNNY     68  42  38 NW6       30.25F
AURORA         SUNNY     67  42  40 NE5       30.26F
WAUKEGAN       SUNNY     65  44  46 VRB7      30.24F
DUPAGE AIRPORT SUNNY     67  43  41 VRB3      30.25F
WHEELING       SUNNY     68  41  37 MISG      30.26F
NORTHERLY ISL    N/A     59  45  59 E7          N/A
$$

LMZ740>746-222100-
SOUTHERN LAKE MICHIGAN

STATION/POSITION SKY/WX   TEMP    WIND        PRES    VSBY  WAVE
                          AIR SEA DIR/SP/G                  HT/PER
                          (F)     (DEG/KT/KT) (MB)    (MI)  (FT/S)
SOUTHERN BUOY              56 62  250/  8/ 10 1025.1F         2/ 7
WAUKEGAN HARBOR            63     140/  8/  9   N/A
HARRISON CRIB              56      80/  6/  7   N/A
BURNHAM HARBOR             59      90/  5/  6   N/A
CALUMET HARBOR             57      50/  5/  7 1023.6F
MICHIGAN CITY              58     330/  6/  8   N/A
MICHIGAN CITY 6N           56 64  300/  4/  8   N/A           3/ 6
ST. JOSEPH                 57 65  320/  8/ 12   N/A           3/ 4
$$

ILZ025>027-034>036-040-047-049-050-058-095>099-222100-
WEST-CENTRAL ILLINOIS

CITY           SKY/WX    TMP DP  RH WIND       PRES   REMARKS
QUINCY         SUNNY     70  43  37 NW6       30.26F
$$

ILZ028>032-037-038-041>044-048-051>054-059>061-222100-
CENTRAL ILLINOIS

CITY           SKY/WX    TMP DP  RH WIND       PRES   REMARKS
DECATUR        SUNNY     70  46  42 N8        30.26F
PEORIA         SUNNY     70  44  39 NE5       30.26F
SPRINGFIELD    SUNNY     71  46  40 CALM      30.26F
TAYLORVILLE    NOT AVBL
$$

ILZ033-039-045-046-055>057-062-063-222100-
EAST-CENTRAL ILLINOIS

CITY           SKY/WX    TMP DP  RH WIND       PRES   REMARKS
CHAMPAIGN      SUNNY     67  43  41 CALM      30.26F
MATTOON        SUNNY     69  43  38 MISG      30.24F
$$

ILZ079-100>102-222100-
SOUTHWEST ILLINOIS

CITY           SKY/WX    TMP DP  RH WIND       PRES   REMARKS
ALTON          SUNNY     72  34  25 NW7       30.26F
BELLEVILLE     SUNNY     73  48  41 NW7       30.24F
CAHOKIA*       SUNNY     74  47  38 CALM      30.25F
$$

ILZ064>066-069>071-074>076-080>082-084>086-088>090-092>094-222100-
SOUTH-CENTRAL ILLINOIS

CITY           SKY/WX    TMP DP  RH WIND       PRES   REMARKS
CARBONDALE     SUNNY     73  46  38 N9        30.24F
MARION         SUNNY     72  43  35 N6        30.25F
MT. VERNON     SUNNY     70  46  43 N7        30.26F
$$

ILZ067-068-072-073-078-083-087-091-222100-
SOUTHEAST ILLINOIS

CITY           SKY/WX    TMP DP  RH WIND       PRES   REMARKS
LAWRENCEVILLE  SUNNY     70  45  40 N10       30.24F
$$

ABBREVIATIONS USED IN REMARKS
   TC - TEMPERATURE IN CELSIUS
  WCI - WIND CHILL INDEX
   HX - HEAT INDEX
  VSB - VISIBILITY
$$



USA.gov is the U.S. government's official web portal to all federal, state and local government web resources and services.